Regional Weather Roundup
Issued by NWS

Home | Current Version | Previous Version | Graphics & Text | Print | Product List | Glossary On
Versions: 1 2 3 4 5 6 7 8 9 10 11 12 13 14 15 16 17 18 19 20 21 22 23 24 25 26 27 28
000
ASUS45 KSLC 200110
RWRUT

UTAH REGIONAL WEATHER ROUNDUP
NATIONAL WEATHER SERVICE SALT LAKE CITY UT
700 PM MDT WED JUL 19 2017

UTZ001>011-023>025-200200-

NORTHERN UTAH

CITY           SKY/WX    TMP DP  RH WIND       PRES   REMARKS
BRIGHAM CITY   CLOUDY    91  42  18 S12G18    30.00S
HILL AFB       NOT AVBL
LOGAN          CLOUDY    93  43  17 S10       30.00F
OGDEN          CLOUDY    87  53  31 S14G25    30.01F
SALT LAKE CITY CLOUDY    86  56  35 S14       30.02F
TOOELE VALLEY  CLOUDY    88  52  29 S12G22    30.02R
WENDOVER       MOSUNNY   97  46  17 SE15      29.95F HX  93
HEBER CITY     CLOUDY    73  55  53 W3        30.18R
WEST JORDAN    CLOUDY    80  64  58 S15       30.08S

$$

UTZ011>015-024>027-200200-

CENTRAL/NORTHEAST UTAH

CITY           SKY/WX    TMP DP  RH WIND       PRES   REMARKS
PROVO AIRPORT  CLOUDY    75  62  64 CALM      30.12R
MOAB/CANYONLAN CLOUDY    81  67  62 E7        30.01F THUNDER
DELTA          CLOUDY    82  50  32 NE6       30.08F
PRICE          CLOUDY    85  46  25 W13       30.16S
ROOSEVELT      MOSUNNY   79  57  47 NE18      30.15R
VERNAL         LGT RAIN  75  56  51 NW22G29   30.14R

$$

UTZ013>016-019>022-027-200200-

SOUTHERN UTAH

CITY           SKY/WX    TMP DP  RH WIND       PRES   REMARKS
BRYCE CANYON   MOSUNNY   74  55  51 SE12      30.33R
CEDAR CITY     MOSUNNY   80  53  39 SW17      30.16S
MILFORD        MOSUNNY   87  51  28 SW14G24   30.09F
ST GEORGE      CLOUDY    91  62  37 W7        29.98F HX  91
HANKSVILLE     PTSUNNY   91  48  22 NW16G24   30.03S
BLANDING       PTSUNNY   82  52  36 CALM      30.22F

$$

REGIONAL REPORTS     COLORADO/ARIZONA

CITY           SKY/WX    TMP DP  RH WIND       PRES   REMARKS
CRAIG, CO      LGT RAIN  68  53  58 S20       30.22F
GRAND JUNCTION CLOUDY    81  66  60 VRB7      30.04F
RIFLE, CO      LGT RAIN  70  58  65 N16G32    30.14R
MONTROSE, CO   CLOUDY    83  44  25 S5        30.16F
CORTEZ, CO     SUNNY     91  47  21 SW6       30.14F
COLORADO CITY    N/A     81  64  57 SW13      30.19R
PAGE, AZ       PTSUNNY   88  57  34 W9G17     30.06R
GRAND CANYON   LGT RAIN  65  62  90 SW5       30.31S
KINGMAN, AZ    PTSUNNY   82  65  56 NW7       30.07F
FLAGSTAFF, AZ  LGT RAIN  59  58  96 VRB3      30.33S FOG

$$

REGIONAL REPORTS    NEVADA/IDAHO/WYOMING

CITY           SKY/WX    TMP DP  RH WIND       PRES   REMARKS
LAS VEGAS, NV  PTSUNNY   87  67  51 E9        29.96F HX  90
ELY, NY        PTSUNNY   85  54  34 SE22G31   30.13F
ELKO, NV       SUNNY     94  21   7 NW10      30.03F
POCATELLO, ID  SUNNY     92  30  11 SW5       30.00F
BURLEY, ID     SUNNY     88  41  19 W9        29.97F
FORT BRIDGER,  CLOUDY    75  46  35 S17G23    30.30S
EVANSTON, WY   CLOUDY    71  50  47 S10       30.29S
ROCK SPRINGS,  CLOUDY    81  40  23 SW13      30.22R
KEMMERER, WY     N/A     79  45  29 SW3       30.28R

$$




USA.gov is the U.S. government's official web portal to all federal, state and local government web resources and services.